Voltar ao catálogo

STARLINK-32653

AtivoComunicaçõesVLEO
NORAD 62199·PAYLOAD·🇺🇸 United States

Lançado Dec 4, 2024 de Cape Canaveral Space Force Station

Loading…

Próximas Passagens (próximas 24 horas)

TLE

AtualizadoSource: CelesTrak SupGP

Época: Sep 14, 2026, 22:25 UTC

1 62199C 24229H   26257.93451389  .00034031  00000+0  12326-2 0  2573
2 62199  42.9995 275.0854 0001414 267.1708  63.7948 15.27560732    15

Acompanhe STARLINK-32653 em tempo real com AllMySat

Download on the App Store